[[{"header":{"parameterUnit":"m.s-1","parameterCategory":1,"la1":30.2991,"la2":30.254,"lo1":-89.0895,"lo2":-89.0444,"dy":0.0017,"dx":0.0017,"nx":28,"ny":28,"refTime":"2025-04-10T03:00:00:Z","depth":0,"parameterNumber":2,"parameterNumberName":"U-component_of_WINDS"},"data":[0,0,0,0,0,0,0,0,0,0,0,0,0,0,0,0,0,0,0,0,0,0,0,0,0,0,0,0,0,0,0,0,0,0,0,0,0,0,0,0,0,0,0,0,0,0,0,0,0,0,0,0,0,0,0,0,0,0,3.2088,3.2088,0,3.2127,3.2127,3.2128,3.211,3.2109,3.2108,3.2107,3.2146,3.2148,3.215,0,0,0,0,0,0,0,0,0,0,0,0,0,3.1998,3.2,3.2088,3.2088,3.2089,3.2127,3.2127,3.2128,3.211,3.2109,3.2107,3.2106,3.2146,3.2148,3.215,0,0,0,0,0,0,0,0,0,0,0,0,0,3.2037,3.2,3.2088,3.2084,3.2084,3.2127,3.2127,3.2128,3.211,3.2109,3.2107,3.2106,3.2145,3.2148,3.215,3.2198,0,0,3.2159,3.2161,0,0,0,0,0,0,0,0,3.2035,3.204,3.2084,3.2085,3.2085,3.2112,3.211,3.2151,3.211,3.21,3.2107,3.2105,3.2136,3.2139,3.215,3.22,3.2202,3.216,3.2162,3.2163,3.2164,0,0,0,0,0,0,0,3.2032,3.2039,3.2103,3.2085,3.2085,3.2081,3.2085,3.2118,3.2126,3.2101,3.21,3.2105,3.2136,3.2147,3.2151,3.2202,3.216,3.2162,3.2164,3.2165,3.2295,3.2297,0,0,0,0,0,0,3.203,3.2037,3.2102,3.2104,3.2056,3.2084,3.2088,3.2105,3.2125,3.2127,3.2106,3.2104,3.2143,3.2147,3.2152,3.221,3.2163,3.2166,3.2167,3.2294,3.2296,3.2298,0,0,0,0,0,0,3.2028,3.2036,3.21,3.207,3.2078,3.2087,3.2106,3.2106,3.2118,3.2129,3.213,3.2116,3.2142,3.2148,3.2187,3.2211,3.2167,3.217,3.2292,3.2294,3.2297,3.2327,0,0,0,0,0,0,3.2025,3.2035,3.2053,3.2071,3.208,3.2135,3.2107,3.2108,3.2123,3.212,3.2139,3.2141,3.2141,3.2183,3.219,3.2215,3.2172,3.229,3.2293,3.2296,3.2323,3.233,3.2335,0,0,0,0,0,3.2022,3.2059,3.2054,3.2062,3.2102,3.2136,3.2141,3.2141,3.2125,3.2143,3.2151,3.214,3.2208,3.2187,3.2195,3.2221,3.2288,3.2292,3.2296,3.2321,3.2329,3.2335,0,0,0,0,0,0,3.2043,3.2061,3.2056,3.2099,3.2116,3.2133,3.2156,3.2149,3.2171,3.2167,3.2166,3.2171,3.2212,3.222,3.2197,3.2269,3.2245,3.2251,3.2262,3.2269,3.2275,3.2272,3.2174,0,0,0,0,0,3.2053,3.2079,3.2093,3.213,3.2139,3.2146,3.2161,3.216,3.2177,3.2184,3.2195,3.2212,3.2237,3.2254,3.2278,3.2325,3.2329,3.2347,3.2353,3.2357,3.2362,3.2389,3.2398,3.231,3.231,3.231,0,0,3.2073,3.2086,3.2102,3.2135,3.2148,3.2175,3.2152,3.2182,3.2202,3.2188,3.2226,3.2235,3.2255,3.2299,3.2319,3.2307,3.2388,3.2362,3.2366,3.2368,3.2394,3.2403,3.241,3.2313,3.2312,3.2312,0,0,3.2124,3.2136,3.2169,3.2183,3.2204,3.2208,3.2217,3.2235,3.224,3.2279,3.227,3.2294,3.2337,3.2352,3.2365,3.2425,3.2416,3.2432,3.2463,3.249,3.2497,3.2503,3.2525,3.2532,3.2437,3.2437,3.2437,0,3.2146,3.2186,3.2187,3.2218,3.2233,3.2223,3.2257,3.2271,3.2298,3.2309,3.2296,3.2351,3.2363,3.2412,3.2426,3.2437,3.2447,3.243,3.2496,3.2502,3.2507,3.2528,3.2537,3.2439,3.2439,3.2439,3.2439,0,3.2214,3.2242,3.2267,3.2294,3.2312,3.2344,3.235,3.2369,3.2367,3.2373,3.2413,3.2428,3.2456,3.2467,3.2465,3.2516,3.2508,3.2495,3.2471,3.2518,3.2537,3.2545,3.2442,3.2441,3.2441,3.244,0,0,3.2277,3.2306,3.2315,3.2328,3.2351,3.2373,3.2406,3.2433,3.245,3.2469,3.2497,3.2535,3.2525,3.254,3.2539,3.2563,3.261,3.2547,3.2548,3.2559,3.2668,3.2678,3.2687,3.2605,3.2607,3.2608,3.2667,0,3.233,3.2387,3.2389,3.2441,3.2469,3.2461,3.249,3.2507,3.2515,3.2539,3.2547,3.2575,3.2558,3.2567,3.259,3.26,3.2632,3.2595,3.2631,3.2632,3.2626,3.2697,3.2707,3.2762,3.2675,3.2676,3.2677,0,3.2398,3.2421,3.2477,3.2498,3.2509,3.2535,3.2561,3.2585,3.2605,3.2609,3.2628,3.2624,3.2659,3.2635,3.2682,3.2657,3.2672,3.268,3.2682,3.2685,3.2657,3.2702,3.2779,3.2787,3.2689,3.2688,3.2687,0,3.244,3.2485,3.2524,3.2535,3.2561,3.2579,3.2591,3.261,3.2627,3.265,3.2662,3.2689,3.2703,3.2725,3.2729,3.2711,3.2778,3.2753,3.2782,3.2782,3.2796,3.2795,3.2876,3.2806,3.2806,3.2806,3.2805,0,3.2498,3.2533,3.2543,3.2567,3.2606,3.2609,3.2647,3.2658,3.2675,3.2702,3.2697,3.2722,3.2726,3.2753,3.2757,3.2797,3.2803,3.2808,3.2808,3.2808,3.2808,3.2817,3.2814,3.2808,3.2807,3.2807,3.2806,0,3.2551,3.2559,3.2602,3.2623,3.2629,3.2657,3.2675,3.2699,3.2707,3.274,3.2749,3.2761,3.2792,3.2799,3.2835,3.2838,3.2885,3.2882,3.2879,3.2878,3.2907,3.2904,3.2997,3.301,3.2931,3.2932,3.2933,0,3.2587,3.2614,3.2639,3.2656,3.2669,3.2697,3.2715,3.272,3.2739,3.2766,3.2787,3.2817,3.2842,3.2892,3.2904,3.2933,3.293,3.2961,3.2934,3.2934,3.2931,3.293,3.2933,3.2966,3.2967,3.2967,3.2968,0,3.2652,3.2656,3.2682,3.271,3.2732,3.2754,3.2776,3.279,3.2798,3.282,3.2852,3.2872,3.291,3.2941,3.297,3.2982,3.2977,3.2977,3.2985,3.2985,3.2982,3.2984,3.2893,3.2974,3.2974,3.2973,3.2973,3.2973,3.2698,3.2722,3.2744,3.2774,3.2791,3.2811,3.2835,3.2846,3.2873,3.2905,3.2907,3.2942,3.2964,3.3002,3.3016,3.3044,3.3035,3.3047,3.305,3.3052,3.3055,3.2978,3.305,3.305,3.3049,3.3049,3.3049,0,3.2763,3.2777,3.2805,3.2836,3.286,3.2853,3.2877,3.2898,3.2929,3.295,3.2975,3.3013,3.3043,3.3059,3.3089,3.3109,3.3107,3.3117,3.3115,3.3118,3.3062,3.3052,3.3117,3.3117,3.3117,3.3117,3.3117,3.3117,3.28,3.284,3.2846,3.2896,3.291,3.2944,3.2959,3.2978,3.2995,3.3038,3.3063,3.3074,3.3093,3.3125,3.3153,3.3157,3.3169,3.3179,3.3182,3.3129,3.3122,3.3115,3.3106,3.3182,3.3182,3.3236,3.3236,3.3237]},{"header":{"parameterUnit":"m.s-1","parameterCategory":1,"la1":30.2991,"la2":30.254,"lo1":-89.0895,"lo2":-89.0444,"dy":0.0017,"dx":0.0017,"nx":28,"ny":28,"refTime":"2025-04-10T03:00:00:Z","depth":0,"parameterNumber":3,"parameterNumberName":"V-component_of_WINDS"},"data":[0,0,0,0,0,0,0,0,0,0,0,0,0,0,0,0,0,0,0,0,0,0,0,0,0,0,0,0,0,0,0,0,0,0,0,0,0,0,0,0,0,0,0,0,0,0,0,0,0,0,0,0,0,0,0,0,0,0,-1.4614,-1.4615,0,-1.4729,-1.473,-1.4731,-1.4776,-1.4776,-1.4775,-1.4775,-1.4894,-1.4897,-1.49,0,0,0,0,0,0,0,0,0,0,0,0,0,-1.4434,-1.4437,-1.4613,-1.4615,-1.4616,-1.4728,-1.473,-1.4732,-1.4776,-1.4776,-1.4775,-1.4775,-1.4893,-1.4897,-1.4901,0,0,0,0,0,0,0,0,0,0,0,0,0,-1.4527,-1.4438,-1.4613,-1.4652,-1.4657,-1.4728,-1.473,-1.4732,-1.4776,-1.4776,-1.4775,-1.4775,-1.4891,-1.4896,-1.4901,-1.4943,0,0,-1.4917,-1.4919,0,0,0,0,0,0,0,0,-1.4522,-1.4534,-1.4645,-1.4649,-1.4655,-1.4738,-1.471,-1.4803,-1.4776,-1.4731,-1.4775,-1.4775,-1.4842,-1.4851,-1.4874,-1.4948,-1.4953,-1.4918,-1.4921,-1.4923,-1.4924,0,0,0,0,0,0,0,-1.4515,-1.4529,-1.4659,-1.4646,-1.4653,-1.4665,-1.4677,-1.4728,-1.4788,-1.4735,-1.4738,-1.4751,-1.4845,-1.4869,-1.4877,-1.4955,-1.4917,-1.4922,-1.4925,-1.4927,-1.5072,-1.5073,0,0,0,0,0,0,-1.4502,-1.4523,-1.4655,-1.4662,-1.4586,-1.4668,-1.4682,-1.4711,-1.4787,-1.4798,-1.4752,-1.4753,-1.486,-1.4871,-1.4881,-1.4937,-1.4923,-1.4928,-1.4931,-1.5071,-1.5072,-1.5073,0,0,0,0,0,0,-1.4498,-1.4514,-1.4651,-1.4594,-1.4612,-1.4672,-1.4704,-1.4714,-1.4738,-1.48,-1.4811,-1.4765,-1.486,-1.4874,-1.4928,-1.4941,-1.493,-1.4935,-1.507,-1.5072,-1.5073,-1.5046,0,0,0,0,0,0,-1.4493,-1.4512,-1.4527,-1.4594,-1.4615,-1.4694,-1.4705,-1.4717,-1.4747,-1.475,-1.4816,-1.4826,-1.4861,-1.492,-1.4933,-1.4948,-1.4939,-1.5069,-1.5071,-1.5072,-1.5046,-1.5046,-1.5046,0,0,0,0,0,-1.4486,-1.4515,-1.4528,-1.4544,-1.4636,-1.4695,-1.4707,-1.4746,-1.4748,-1.4765,-1.4805,-1.4824,-1.4938,-1.4925,-1.494,-1.4957,-1.5069,-1.5071,-1.5072,-1.5046,-1.5046,-1.5046,0,0,0,0,0,0,-1.4448,-1.4524,-1.4539,-1.459,-1.4636,-1.4702,-1.4724,-1.4745,-1.4791,-1.4792,-1.4839,-1.4854,-1.4904,-1.4936,-1.492,-1.5003,-1.5005,-1.501,-1.498,-1.498,-1.498,-1.4972,-1.4943,0,0,0,0,0,-1.4445,-1.4487,-1.4551,-1.459,-1.4612,-1.4664,-1.4691,-1.4718,-1.4767,-1.4787,-1.4831,-1.4878,-1.4925,-1.4954,-1.5,-1.5051,-1.5067,-1.507,-1.5071,-1.507,-1.5074,-1.5105,-1.5108,-1.5079,-1.5079,-1.5078,0,0,-1.4441,-1.4487,-1.451,-1.4584,-1.4622,-1.4664,-1.468,-1.4724,-1.4756,-1.4793,-1.4847,-1.4881,-1.4937,-1.499,-1.5015,-1.5018,-1.5086,-1.5073,-1.5072,-1.5076,-1.5107,-1.511,-1.5113,-1.508,-1.5079,-1.5079,0,0,-1.4454,-1.4493,-1.453,-1.4569,-1.4627,-1.4662,-1.4671,-1.4735,-1.4759,-1.4814,-1.4843,-1.4883,-1.4962,-1.5001,-1.5031,-1.5062,-1.5082,-1.5076,-1.5077,-1.5107,-1.5109,-1.5111,-1.5124,-1.5128,-1.5079,-1.5079,-1.5079,0,-1.444,-1.4505,-1.4547,-1.459,-1.4622,-1.4658,-1.4697,-1.4733,-1.4803,-1.4825,-1.4827,-1.4928,-1.4968,-1.5032,-1.504,-1.5063,-1.5076,-1.5069,-1.5105,-1.5108,-1.5111,-1.5123,-1.5128,-1.5078,-1.5078,-1.5079,-1.5079,0,-1.4487,-1.4531,-1.4555,-1.4622,-1.4657,-1.4698,-1.4747,-1.4777,-1.4801,-1.4837,-1.4893,-1.4943,-1.5001,-1.5018,-1.5041,-1.5086,-1.5086,-1.5096,-1.5099,-1.5112,-1.5125,-1.5129,-1.5077,-1.5077,-1.5077,-1.5078,0,0,-1.4477,-1.4569,-1.4577,-1.4609,-1.4677,-1.4713,-1.4756,-1.4813,-1.4839,-1.4887,-1.4926,-1.4993,-1.5003,-1.5038,-1.5066,-1.5093,-1.5116,-1.51,-1.5102,-1.5102,-1.517,-1.5162,-1.5167,-1.513,-1.5131,-1.5132,-1.5166,0,-1.45,-1.4579,-1.4619,-1.4681,-1.4723,-1.476,-1.4798,-1.4844,-1.4879,-1.4921,-1.496,-1.5007,-1.5016,-1.5038,-1.5066,-1.5107,-1.513,-1.5105,-1.5167,-1.5169,-1.5153,-1.5173,-1.5165,-1.5194,-1.5171,-1.5172,-1.5172,0,-1.4537,-1.4585,-1.4651,-1.4717,-1.4736,-1.4769,-1.4826,-1.4866,-1.492,-1.4943,-1.4983,-1.5012,-1.506,-1.506,-1.5129,-1.5111,-1.5139,-1.5163,-1.5165,-1.5173,-1.5171,-1.5182,-1.5204,-1.5209,-1.518,-1.5179,-1.5179,0,-1.4525,-1.4606,-1.4657,-1.4684,-1.476,-1.4784,-1.4817,-1.4871,-1.4903,-1.4953,-1.4975,-1.503,-1.506,-1.5102,-1.5145,-1.5141,-1.521,-1.5213,-1.5232,-1.5231,-1.5245,-1.5244,-1.5273,-1.5262,-1.5262,-1.5261,-1.5261,0,-1.4546,-1.4586,-1.4653,-1.4684,-1.473,-1.4777,-1.4821,-1.4858,-1.4906,-1.4946,-1.498,-1.5017,-1.5072,-1.5116,-1.515,-1.5203,-1.5216,-1.5237,-1.5246,-1.5234,-1.5232,-1.5253,-1.5253,-1.5263,-1.5262,-1.5262,-1.5262,0,-1.454,-1.4587,-1.4645,-1.4714,-1.4732,-1.4763,-1.4823,-1.4855,-1.4892,-1.4943,-1.4957,-1.5015,-1.507,-1.5117,-1.5188,-1.5211,-1.5266,-1.5276,-1.5247,-1.5252,-1.5269,-1.5267,-1.5313,-1.5323,-1.5304,-1.5304,-1.5304,0,-1.4551,-1.4582,-1.4655,-1.4685,-1.4718,-1.4764,-1.4798,-1.4846,-1.488,-1.4945,-1.497,-1.5027,-1.5075,-1.516,-1.5209,-1.5264,-1.5277,-1.5289,-1.5285,-1.5273,-1.5278,-1.5276,-1.528,-1.5289,-1.5289,-1.5289,-1.5289,0,-1.4566,-1.4588,-1.4635,-1.4691,-1.4731,-1.4777,-1.4824,-1.4847,-1.4904,-1.494,-1.4996,-1.5033,-1.5107,-1.5164,-1.5225,-1.526,-1.5285,-1.529,-1.5298,-1.5286,-1.5269,-1.528,-1.5248,-1.5289,-1.5289,-1.5289,-1.5289,-1.5289,-1.4569,-1.46,-1.4656,-1.4709,-1.475,-1.4794,-1.4828,-1.487,-1.4918,-1.4982,-1.5007,-1.5065,-1.5121,-1.5206,-1.5241,-1.5288,-1.5292,-1.5302,-1.5305,-1.5307,-1.5306,-1.5261,-1.5299,-1.5299,-1.5299,-1.5299,-1.5299,0,-1.4587,-1.4626,-1.4673,-1.4739,-1.4781,-1.48,-1.4855,-1.4888,-1.4938,-1.4989,-1.5036,-1.5101,-1.5157,-1.5211,-1.527,-1.5297,-1.531,-1.5311,-1.5309,-1.5318,-1.5298,-1.5286,-1.5299,-1.5299,-1.5299,-1.5299,-1.5299,-1.5299,-1.4601,-1.4654,-1.4683,-1.4758,-1.4797,-1.4853,-1.4883,-1.4925,-1.4965,-1.5037,-1.5083,-1.5119,-1.5171,-1.5235,-1.5287,-1.5302,-1.5322,-1.5321,-1.5338,-1.5319,-1.5319,-1.5318,-1.5307,-1.5324,-1.5324,-1.5354,-1.5354,-1.5355]}]]